STARLINK-3889 (52331 NORAD) Tracking and Keplerian Element Data
This shows tracking and keplerian element data for the satellite.
Feedback or suggestion? Click here.
Element | Value |
Catalog | 52331 |
Name | STARLINK-3889 |
Epoch Orbit | 130 |
Epoch Day | 167.08334491 |
Epoch Year | 2022 |
RAAN | 207.3371 |
Inclination | 53.2174 |
Eccentricity | 0.0001637 |
Argument of Perigee | 41.0197 |
Mean Anonmoly | 39.1419 |
Mean Motion | 15.31553435 |
Decay Rate | -0.00715938 |
L1 | 1 52331U 22045A 22167.08334491 -.00715938 00000+0 -25108-1 0 9998 |
L2 | 2 52331 53.2174 207.3371 0001637 41.0197 39.1419 15.31553435 1306 |
Live tracking and technical data element details for STARLINK-3889 (NORAD 52331). STARLINK-3889 can be tracked NOW for your location showing map with azimuth and elevation plus other details from your city location.
Track the satellite on the map from your city or location and see movement details for azimuth, elevation, latitude, longitude, range, height, and movement on the map or in text.
IsCatalogInMostPopularTable: catalog: 52331, numindb: 1
Update: records affected: 1
GetName: 52331 STARLINK-3889
Hit Count: updated at: Mon, 27 Jun 2022 06:16:44 GMT